WLF466 KCMH-KDEN

Flight info

Callsign WLF466
Flight time N/A
Altitude 28000
Route PKACZ TARRY ROD EDENS DSM/N0471F300 OBH BRWRY LAWGR4
Aircraft B738/M-SDE2E3FGHIRWXY/LB1

Departure

Time 2026-05-05 21:22
Airport John Glenn Columbus International Airport (KCMH)

Arrival

Time N/A
Airport Denver International Airport (KDEN)
Time Latitude Longitude Altitude Speed Heading
2026-05-05 21:15 39.99596 -82.88510 824 ft 0 kts
2026-05-05 21:17 39.99597 -82.88510 824 ft 1 kts
2026-05-05 21:17 39.99603 -82.88496 822 ft 4 kts 83°
2026-05-05 21:17 39.99591 -82.88444 824 ft 8 kts 102°
2026-05-05 21:18 39.99580 -82.88358 821 ft 10 kts 105°
2026-05-05 21:18 39.99526 -82.88298 824 ft 11 kts 142°
2026-05-05 21:18 39.99501 -82.88208 824 ft 11 kts 90°
2026-05-05 21:18 39.99496 -82.88099 822 ft 13 kts 95°
2026-05-05 21:19 39.99488 -82.87975 824 ft 14 kts 94°
2026-05-05 21:19 39.99479 -82.87841 824 ft 14 kts 101°
2026-05-05 21:19 39.99402 -82.87792 824 ft 13 kts 175°
2026-05-05 21:19 39.99361 -82.87699 824 ft 13 kts 91°
2026-05-05 21:20 39.99354 -82.87584 820 ft 13 kts 92°
2026-05-05 21:20 39.99348 -82.87472 822 ft 12 kts 94°
2026-05-05 21:20 39.99338 -82.87363 822 ft 12 kts 106°
2026-05-05 21:20 39.99272 -82.87320 821 ft 12 kts 185°
2026-05-05 21:21 39.99193 -82.87334 823 ft 11 kts 202°
2026-05-05 21:21 39.99167 -82.87422 820 ft 11 kts 277°
2026-05-05 21:21 39.99181 -82.87676 818 ft 60 kts 273°
2026-05-05 21:21 39.99226 -82.88516 825 ft 123 kts 274°
2026-05-05 21:22 39.99327 -82.89850 877 ft 168 kts 275°
2026-05-05 21:22 39.99390 -82.91407 1422 ft 175 kts 262°
2026-05-05 21:22 39.99460 -82.92968 2409 ft 169 kts 271°
2026-05-05 21:22 39.99627 -82.94485 3137 ft 175 kts 273°
2026-05-05 21:23 39.99841 -82.96180 3380 ft 201 kts 273°
2026-05-05 21:23 40.00073 -82.98077 3584 ft 222 kts 273°
2026-05-05 21:23 40.00325 -83.00163 3835 ft 244 kts 274°
2026-05-05 21:23 40.00591 -83.02369 4469 ft 252 kts 274°
2026-05-05 21:24 40.00880 -83.04665 5372 ft 254 kts 274°
2026-05-05 21:24 40.01168 -83.06911 6212 ft 257 kts 274°
2026-05-05 21:24 40.01359 -83.09250 6999 ft 255 kts 265°
2026-05-05 21:24 40.01344 -83.11558 7826 ft 255 kts 264°
2026-05-05 21:25 40.01318 -83.13865 8679 ft 254 kts 264°
2026-05-05 21:25 40.01299 -83.16189 9421 ft 257 kts 264°
2026-05-05 21:25 40.01286 -83.18497 10132 ft 260 kts 265°
2026-05-05 21:25 40.01276 -83.20923 10477 ft 278 kts 265°
2026-05-05 21:26 40.01268 -83.23540 10634 ft 299 kts 265°
2026-05-05 21:26 40.01261 -83.26352 10795 ft 319 kts 266°
2026-05-05 21:26 40.01261 -83.29331 10931 ft 339 kts 266°
2026-05-05 21:26 40.01266 -83.32494 11096 ft 357 kts 266°
2026-05-05 21:27 40.01272 -83.34705 11318 ft 365 kts 266°
2026-05-05 21:27 40.01289 -83.37992 11912 ft 368 kts 266°
2026-05-05 21:27 40.01301 -83.41389 12472 ft 373 kts 266°
2026-05-05 21:27 40.01297 -83.44749 13090 ft 375 kts 266°
2026-05-05 21:28 40.01296 -83.48193 13715 ft 377 kts 266°
2026-05-05 21:28 40.01298 -83.51588 14209 ft 379 kts 266°
2026-05-05 21:28 40.01300 -83.55069 14808 ft 379 kts 267°
2026-05-05 21:28 40.01331 -83.58457 15335 ft 381 kts 270°
2026-05-05 21:29 40.01654 -83.61903 15777 ft 386 kts 276°
2026-05-05 21:29 40.02118 -83.65378 16251 ft 389 kts 276°
2026-05-05 21:29 40.02586 -83.68857 16737 ft 391 kts 276°
2026-05-05 21:29 40.03045 -83.72369 17162 ft 394 kts 276°
2026-05-05 21:30 40.03494 -83.75915 17609 ft 397 kts 276°
2026-05-05 21:30 40.03937 -83.79484 18045 ft 399 kts 276°
2026-05-05 21:30 40.04379 -83.83069 18436 ft 401 kts 276°
2026-05-05 21:30 40.04978 -83.86641 18809 ft 408 kts 287°
2026-05-05 21:31 40.06391 -83.89894 19188 ft 419 kts 303°
2026-05-05 21:31 40.08426 -83.92642 19578 ft 428 kts 316°
2026-05-05 21:31 40.11022 -83.94682 19899 ft 442 kts 331°
2026-05-05 21:31 40.13883 -83.96225 20290 ft 446 kts 333°
2026-05-05 21:32 40.16768 -83.97719 20712 ft 448 kts 333°
2026-05-05 21:32 40.19654 -83.99250 21232 ft 448 kts 332°
2026-05-05 21:32 40.22522 -84.00816 21661 ft 448 kts 331°
2026-05-05 21:32 40.25336 -84.02559 21951 ft 444 kts 321°
2026-05-05 21:33 40.27595 -84.05215 22252 ft 433 kts 304°
2026-05-05 21:33 40.29226 -84.08476 22642 ft 426 kts 292°
2026-05-05 21:33 40.30217 -84.12106 22954 ft 422 kts 281°
2026-05-05 21:33 40.30847 -84.15854 23264 ft 423 kts 279°
2026-05-05 21:34 40.31442 -84.19642 23538 ft 425 kts 279°
2026-05-05 21:34 40.32028 -84.23434 23801 ft 426 kts 279°
2026-05-05 21:34 40.32619 -84.27237 24079 ft 426 kts 279°
2026-05-05 21:34 40.33218 -84.31045 24396 ft 426 kts 279°
2026-05-05 21:35 40.33822 -84.34831 24742 ft 425 kts 279°
2026-05-05 21:35 40.34433 -84.38630 25025 ft 426 kts 279°
2026-05-05 21:35 40.35047 -84.42432 25274 ft 426 kts 279°
2026-05-05 21:35 40.35659 -84.46219 25603 ft 425 kts 280°
2026-05-05 21:36 40.36271 -84.50002 26001 ft 422 kts 280°
2026-05-05 21:36 40.36878 -84.53757 26443 ft 419 kts 280°
2026-05-05 21:36 40.37477 -84.57473 26839 ft 417 kts 280°
2026-05-05 21:36 40.38074 -84.61190 27204 ft 415 kts 280°
2026-05-05 21:37 40.38665 -84.64880 27578 ft 414 kts 280°
2026-05-05 21:37 40.39254 -84.68568 27979 ft 412 kts 280°
2026-05-05 21:37 40.39839 -84.72233 28438 ft 408 kts 280°
2026-05-05 21:37 40.40418 -84.75867 28887 ft 406 kts 280°
2026-05-05 21:38 40.40990 -84.79473 29296 ft 404 kts 280°
2026-05-05 21:38 40.41562 -84.83079 29654 ft 403 kts 280°
2026-05-05 21:38 40.42131 -84.86679 29891 ft 403 kts 280°
2026-05-05 21:38 40.42701 -84.90293 29873 ft 404 kts 280°
2026-05-05 21:39 40.43834 -84.97495 29872 ft 401 kts 280°
2026-05-05 21:39 40.44956 -85.04657 29871 ft 400 kts 280°
2026-05-05 21:40 40.46063 -85.11755 29872 ft 399 kts 280°
2026-05-05 21:40 40.47172 -85.18890 29872 ft 399 kts 280°
2026-05-05 21:41 40.48277 -85.26037 29873 ft 399 kts 280°
2026-05-05 21:41 40.49377 -85.33188 29875 ft 400 kts 280°
2026-05-05 21:42 40.50479 -85.40373 29888 ft 401 kts 280°
2026-05-05 21:42 40.51578 -85.47564 29897 ft 402 kts 279°
2026-05-05 21:43 40.52671 -85.54765 29895 ft 401 kts 279°
2026-05-05 21:43 40.53758 -85.61952 29898 ft 401 kts 279°
2026-05-05 21:44 40.54843 -85.69149 29896 ft 401 kts 279°
2026-05-05 21:44 40.55921 -85.76342 29891 ft 401 kts 279°
2026-05-05 21:45 40.56993 -85.83529 29897 ft 400 kts 279°
2026-05-05 21:45 40.58061 -85.90711 29903 ft 400 kts 279°
2026-05-05 21:46 40.59124 -85.97896 29907 ft 400 kts 279°
2026-05-05 21:46 40.60185 -86.05095 29907 ft 400 kts 279°
2026-05-05 21:47 40.61239 -86.12283 29870 ft 401 kts 279°
2026-05-05 21:47 40.62290 -86.19482 29874 ft 400 kts 279°
2026-05-05 21:48 40.63334 -86.26656 29907 ft 398 kts 279°
2026-05-05 21:48 40.64369 -86.33823 29909 ft 398 kts 279°
2026-05-05 21:49 40.65397 -86.40973 29905 ft 397 kts 279°
2026-05-05 21:49 40.66419 -86.48108 29904 ft 396 kts 279°
2026-05-05 21:50 40.67430 -86.55200 29903 ft 396 kts 279°
2026-05-05 21:50 40.68447 -86.62369 29882 ft 396 kts 278°
2026-05-05 21:51 40.69373 -86.68920 29881 ft 395 kts 278°
2026-05-05 21:51 40.70380 -86.76076 29885 ft 395 kts 278°
2026-05-05 21:52 40.71869 -86.86712 29886 ft 395 kts 278°
2026-05-05 21:53 40.72860 -86.93828 29885 ft 395 kts 278°
2026-05-05 21:53 40.73846 -87.00954 29889 ft 395 kts 278°
2026-05-05 21:54 40.74829 -87.08087 29896 ft 395 kts 278°
2026-05-05 21:54 40.75807 -87.15222 29897 ft 396 kts 278°
2026-05-05 21:55 40.76783 -87.22383 29896 ft 396 kts 278°
2026-05-05 21:55 40.77755 -87.29539 29899 ft 397 kts 278°
2026-05-05 21:56 40.78724 -87.36704 29887 ft 397 kts 277°
2026-05-05 21:56 40.79689 -87.43884 29902 ft 398 kts 277°
2026-05-05 21:57 40.80653 -87.51089 29900 ft 399 kts 277°
2026-05-05 21:57 40.81613 -87.58295 29902 ft 399 kts 277°
2026-05-05 21:58 40.82569 -87.65504 29898 ft 399 kts 277°
2026-05-05 21:58 40.83520 -87.72718 29905 ft 398 kts 277°
2026-05-05 21:59 40.84465 -87.79919 29903 ft 398 kts 277°
2026-05-05 21:59 40.85404 -87.87130 29902 ft 398 kts 277°
2026-05-05 22:00 40.86341 -87.94342 29910 ft 398 kts 277°
2026-05-05 22:00 40.87272 -88.01543 29907 ft 398 kts 277°
2026-05-05 22:01 40.88202 -88.08748 29915 ft 398 kts 277°
2026-05-05 22:01 40.89120 -88.15942 29907 ft 397 kts 277°
2026-05-05 22:02 40.90031 -88.23125 29925 ft 396 kts 276°
2026-05-05 22:02 40.90940 -88.30284 29907 ft 394 kts 276°
2026-05-05 22:03 40.91845 -88.37417 29910 ft 392 kts 276°
2026-05-05 22:03 40.92733 -88.44530 29908 ft 392 kts 276°
2026-05-05 22:04 40.93617 -88.51648 29905 ft 393 kts 276°
2026-05-05 22:04 40.94501 -88.58786 29910 ft 394 kts 276°
2026-05-05 22:05 40.95383 -88.65949 29907 ft 395 kts 276°
2026-05-05 22:05 40.96262 -88.73113 29909 ft 395 kts 276°
2026-05-05 22:06 40.97114 -88.80306 29922 ft 395 kts 276°
2026-05-05 22:06 40.97984 -88.87488 29937 ft 395 kts 275°
2026-05-05 22:07 40.98891 -88.94650 29930 ft 394 kts 276°
2026-05-05 22:07 40.99751 -89.01788 29930 ft 391 kts 275°
2026-05-05 22:08 41.00586 -89.08883 29924 ft 390 kts 275°
2026-05-05 22:08 41.01424 -89.15982 29920 ft 389 kts 275°
2026-05-05 22:09 41.02254 -89.23013 29923 ft 389 kts 275°
2026-05-05 22:09 41.03086 -89.30086 29929 ft 388 kts 275°
2026-05-05 22:10 41.03912 -89.37150 29917 ft 389 kts 275°
2026-05-05 22:10 41.04734 -89.44227 29917 ft 389 kts 275°
2026-05-05 22:11 41.05551 -89.51296 29923 ft 388 kts 275°
2026-05-05 22:11 41.06362 -89.58359 29921 ft 388 kts 275°
2026-05-05 22:12 41.07170 -89.65422 29928 ft 388 kts 275°
2026-05-05 22:12 41.07974 -89.72495 29921 ft 388 kts 274°
2026-05-05 22:13 41.08640 -89.78389 29925 ft 389 kts 274°
2026-05-05 22:13 41.09438 -89.85482 29921 ft 389 kts 274°
2026-05-05 22:14 41.10233 -89.92583 29912 ft 390 kts 274°
2026-05-05 22:14 41.11027 -89.99689 29940 ft 389 kts 274°
2026-05-05 22:15 41.11805 -90.06778 29926 ft 388 kts 274°
2026-05-05 22:15 41.12550 -90.13867 29925 ft 388 kts 274°
2026-05-05 22:16 41.13284 -90.20947 29960 ft 387 kts 273°
2026-05-05 22:16 41.14013 -90.27996 29924 ft 384 kts 273°
2026-05-05 22:17 41.14736 -90.35001 29920 ft 382 kts 273°
2026-05-05 22:17 41.15449 -90.41949 29917 ft 380 kts 272°
2026-05-05 22:18 41.16157 -90.48918 29928 ft 381 kts 272°
2026-05-05 22:18 41.16862 -90.55894 29923 ft 382 kts 272°
2026-05-05 22:19 41.17565 -90.62888 29929 ft 383 kts 272°
2026-05-05 22:19 41.18262 -90.69863 29916 ft 385 kts 272°
2026-05-05 22:20 41.18963 -90.76906 29926 ft 385 kts 272°
2026-05-05 22:20 41.19664 -90.84006 29922 ft 385 kts 272°
2026-05-05 22:21 41.20353 -90.91006 29923 ft 385 kts 272°
2026-05-05 22:21 41.21040 -90.98058 29913 ft 385 kts 272°
2026-05-05 22:22 41.21723 -91.05120 29915 ft 385 kts 272°
2026-05-05 22:22 41.22400 -91.12163 29919 ft 385 kts 272°
2026-05-05 22:23 41.23076 -91.19227 29915 ft 385 kts 271°
2026-05-05 22:23 41.23746 -91.26290 29927 ft 386 kts 271°
2026-05-05 22:24 41.24414 -91.33359 29921 ft 385 kts 271°
2026-05-05 22:24 41.25076 -91.40426 29915 ft 386 kts 271°
2026-05-05 22:25 41.25735 -91.47495 29903 ft 386 kts 271°
2026-05-05 22:25 41.26388 -91.54578 29914 ft 386 kts 271°
2026-05-05 22:26 41.27039 -91.61661 29905 ft 385 kts 271°
2026-05-05 22:26 41.27683 -91.68720 29906 ft 385 kts 271°
2026-05-05 22:27 41.28322 -91.75770 29900 ft 384 kts 271°
2026-05-05 22:27 41.28955 -91.82819 29907 ft 384 kts 271°
2026-05-05 22:28 41.29572 -91.89739 29937 ft 384 kts 271°
2026-05-05 22:28 41.30190 -91.96711 29930 ft 383 kts 271°
2026-05-05 22:29 41.30809 -92.03726 29925 ft 382 kts 271°
2026-05-05 22:29 41.31421 -92.10730 29921 ft 381 kts 271°
2026-05-05 22:30 41.32027 -92.17720 29915 ft 380 kts 271°
2026-05-05 22:30 41.32631 -92.24722 29965 ft 380 kts 271°
2026-05-05 22:31 41.33228 -92.31675 29933 ft 377 kts 271°
2026-05-05 22:31 41.33815 -92.38574 29916 ft 374 kts 271°
2026-05-05 22:32 41.34393 -92.45432 29914 ft 372 kts 271°
2026-05-05 22:32 41.34965 -92.52276 29922 ft 372 kts 271°
2026-05-05 22:33 41.35532 -92.59112 29919 ft 372 kts 271°
2026-05-05 22:33 41.36095 -92.65966 29919 ft 373 kts 271°
2026-05-05 22:34 41.36655 -92.72797 29922 ft 375 kts 271°
2026-05-05 22:34 41.37218 -92.79694 29925 ft 375 kts 271°
2026-05-05 22:35 41.37792 -92.86615 29919 ft 376 kts 271°
2026-05-05 22:35 41.38338 -92.93544 29914 ft 377 kts 271°
2026-05-05 22:36 41.38884 -93.00477 29913 ft 376 kts 271°
2026-05-05 22:36 41.39430 -93.07421 29930 ft 377 kts 271°
2026-05-05 22:37 41.39973 -93.14376 29915 ft 378 kts 271°